![]() |
EMODnet Physics ERDDAP
Easier access to scientific data |
log in|
Brought to you by EMODnet Physics |
| Dataset Title: | NDBC - Collection of dew point temperature (DEWT) TimeSeries - IN SITU MultiPointTimeSeriesObservation
|
| Institution: | NDBC (Dataset ID: TS_DEWT_NDBC) |
| Information: | Summary
| License
| FGDC
| ISO 19115
| Metadata
| Background
| Subset
| Data Access Form
| Make a graph
|
| Name | Last modified | Size | Description | |
|---|---|---|---|---|
| Parent Directory | - | - | ||
| 42036_TS_DEWT_011994.nc | 26-Oct-2024 15:26 | 440115 | ||
| 42036_TS_DEWT_011995.nc | 26-Oct-2024 15:27 | 440086 | ||
| 42036_TS_DEWT_011996.nc | 26-Oct-2024 15:27 | 429822 | ||
| 42036_TS_DEWT_011997.nc | 26-Oct-2024 15:27 | 429827 | ||
| 42036_TS_DEWT_011998.nc | 26-Oct-2024 15:27 | 588147 | ||
| 42036_TS_DEWT_011999.nc | 26-Oct-2024 15:27 | 587938 | ||
| 42036_TS_DEWT_012000.nc | 26-Oct-2024 15:27 | 438688 | ||
| 42036_TS_DEWT_012001.nc | 26-Oct-2024 15:27 | 439515 | ||
| 42036_TS_DEWT_012002.nc | 26-Oct-2024 15:27 | 440069 | ||
| 42036_TS_DEWT_012003.nc | 26-Oct-2024 15:27 | 588099 | ||
| 42036_TS_DEWT_012004.nc | 26-Oct-2024 15:27 | 588113 | ||
| 42036_TS_DEWT_012005.nc | 26-Oct-2024 15:27 | 588005 | ||
| 42036_TS_DEWT_012006.nc | 26-Oct-2024 15:27 | 437753 | ||
| 42036_TS_DEWT_012007.nc | 26-Oct-2024 15:27 | 440050 | ||
| 42036_TS_DEWT_012008.nc | 26-Oct-2024 15:27 | 588118 | ||
| 42036_TS_DEWT_012009.nc | 26-Oct-2024 15:27 | 588154 | ||
| 42036_TS_DEWT_012010.nc | 26-Oct-2024 15:27 | 588120 | ||
| 42036_TS_DEWT_012011.nc | 26-Oct-2024 15:27 | 438969 | ||
| 42036_TS_DEWT_012012.nc | 26-Oct-2024 15:27 | 588193 | ||
| 42036_TS_DEWT_012013.nc | 26-Oct-2024 15:27 | 588341 | ||
| 42036_TS_DEWT_012014.nc | 26-Oct-2024 15:27 | 429060 | ||
| 42036_TS_DEWT_012015.nc | 26-Oct-2024 15:27 | 429215 | ||
| 42036_TS_DEWT_012016.nc | 26-Oct-2024 15:28 | 440062 | ||
| 42036_TS_DEWT_012017.nc | 26-Oct-2024 15:28 | 439786 | ||
| 42036_TS_DEWT_012020.nc | 26-Oct-2024 15:28 | 425326 | ||
| 42036_TS_DEWT_012021.nc | 26-Oct-2024 15:28 | 439035 | ||
| 42036_TS_DEWT_012022.nc | 26-Oct-2024 15:28 | 439662 | ||
| 42036_TS_DEWT_012023.nc | 26-Oct-2024 15:28 | 438223 | ||
| 42036_TS_DEWT_012024.nc | 26-Oct-2024 15:28 | 439962 | ||
| 42036_TS_DEWT_012025.nc | 07-Feb-2025 10:05 | 440035 | ||
| 42036_TS_DEWT_012026.nc | 02-Feb-2026 17:54 | 436268 | ||
| 42036_TS_DEWT_021994.nc | 26-Oct-2024 15:28 | 426467 | ||
| 42036_TS_DEWT_021995.nc | 26-Oct-2024 15:28 | 440017 | ||
| 42036_TS_DEWT_021996.nc | 26-Oct-2024 15:28 | 440105 | ||
| 42036_TS_DEWT_021997.nc | 26-Oct-2024 15:28 | 439136 | ||
| 42036_TS_DEWT_021998.nc | 26-Oct-2024 15:28 | 440118 | ||
| 42036_TS_DEWT_021999.nc | 26-Oct-2024 15:28 | 434267 | ||
| 42036_TS_DEWT_022000.nc | 26-Oct-2024 15:28 | 440013 | ||
| 42036_TS_DEWT_022001.nc | 26-Oct-2024 15:28 | 429830 | ||
| 42036_TS_DEWT_022002.nc | 26-Oct-2024 15:28 | 429825 | ||
| 42036_TS_DEWT_022003.nc | 26-Oct-2024 15:28 | 588116 | ||
| 42036_TS_DEWT_022004.nc | 26-Oct-2024 15:28 | 423798 | ||
| 42036_TS_DEWT_022005.nc | 26-Oct-2024 15:28 | 439780 | ||
| 42036_TS_DEWT_022006.nc | 26-Oct-2024 15:28 | 437768 | ||
| 42036_TS_DEWT_022008.nc | 26-Oct-2024 15:28 | 440041 | ||
| 42036_TS_DEWT_022009.nc | 26-Oct-2024 15:28 | 588120 | ||
| 42036_TS_DEWT_022010.nc | 26-Oct-2024 15:29 | 588006 | ||
| 42036_TS_DEWT_022011.nc | 26-Oct-2024 15:29 | 433665 | ||
| 42036_TS_DEWT_022012.nc | 26-Oct-2024 15:29 | 588052 | ||
| 42036_TS_DEWT_022013.nc | 26-Oct-2024 15:29 | 440251 | ||
| 42036_TS_DEWT_022014.nc | 26-Oct-2024 15:29 | 588166 | ||
| 42036_TS_DEWT_022015.nc | 26-Oct-2024 15:29 | 587926 | ||
| 42036_TS_DEWT_022016.nc | 26-Oct-2024 15:29 | 588188 | ||
| 42036_TS_DEWT_022017.nc | 26-Oct-2024 15:29 | 437337 | ||
| 42036_TS_DEWT_022020.nc | 26-Oct-2024 15:29 | 440278 | ||
| 42036_TS_DEWT_022021.nc | 26-Oct-2024 15:29 | 439866 | ||
| 42036_TS_DEWT_022022.nc | 26-Oct-2024 15:29 | 440049 | ||
| 42036_TS_DEWT_022023.nc | 26-Oct-2024 15:29 | 434794 | ||
| 42036_TS_DEWT_022024.nc | 16-Sep-2024 16:51 | 588006 | ||
| 42036_TS_DEWT_022025.nc | 01-Mar-2025 06:59 | 438066 | ||
| 42036_TS_DEWT_022026.nc | 01-Mar-2026 07:21 | 588079 | ||
| 42036_TS_DEWT_031994.nc | 26-Oct-2024 15:29 | 587899 | ||
| 42036_TS_DEWT_031995.nc | 26-Oct-2024 15:29 | 588130 | ||
| 42036_TS_DEWT_031996.nc | 26-Oct-2024 15:29 | 588170 | ||
| 42036_TS_DEWT_031997.nc | 26-Oct-2024 15:29 | 588148 | ||
| 42036_TS_DEWT_031998.nc | 26-Oct-2024 15:29 | 588074 | ||
| 42036_TS_DEWT_031999.nc | 26-Oct-2024 15:29 | 427603 | ||
| 42036_TS_DEWT_032000.nc | 26-Oct-2024 15:30 | 438785 | ||
| 42036_TS_DEWT_032001.nc | 26-Oct-2024 15:30 | 438551 | ||
| 42036_TS_DEWT_032002.nc | 26-Oct-2024 15:30 | 438543 | ||
| 42036_TS_DEWT_032003.nc | 26-Oct-2024 15:30 | 438945 | ||
| 42036_TS_DEWT_032004.nc | 26-Oct-2024 15:30 | 438576 | ||
| 42036_TS_DEWT_032005.nc | 26-Oct-2024 15:30 | 432105 | ||
| 42036_TS_DEWT_032006.nc | 26-Oct-2024 15:30 | 438764 | ||
| 42036_TS_DEWT_032009.nc | 26-Oct-2024 15:30 | 439458 | ||
| 42036_TS_DEWT_032010.nc | 26-Oct-2024 15:30 | 438757 | ||
| 42036_TS_DEWT_032011.nc | 26-Oct-2024 15:30 | 438770 | ||
| 42036_TS_DEWT_032012.nc | 26-Oct-2024 15:30 | 438805 | ||
| 42036_TS_DEWT_032013.nc | 26-Oct-2024 15:30 | 419640 | ||
| 42036_TS_DEWT_032014.nc | 26-Oct-2024 15:30 | 440160 | ||
| 42036_TS_DEWT_032015.nc | 26-Oct-2024 15:30 | 431407 | ||
| 42036_TS_DEWT_032016.nc | 26-Oct-2024 15:30 | 588091 | ||
| 42036_TS_DEWT_032017.nc | 26-Oct-2024 15:30 | 439700 | ||
| 42036_TS_DEWT_032020.nc | 26-Oct-2024 15:30 | 587933 | ||
| 42036_TS_DEWT_032021.nc | 26-Oct-2024 15:30 | 587894 | ||
| 42036_TS_DEWT_032022.nc | 26-Oct-2024 15:30 | 587798 | ||
| 42036_TS_DEWT_032023.nc | 26-Oct-2024 15:30 | 588132 | ||
| 42036_TS_DEWT_032025.nc | 02-Apr-2025 05:35 | 435026 | ||
| 42036_TS_DEWT_032026.nc | 21-Mar-2026 10:07 | 588124 | ||
| 42036_TS_DEWT_041994.nc | 26-Oct-2024 15:31 | 588214 | ||
| 42036_TS_DEWT_041995.nc | 26-Oct-2024 15:31 | 439655 | ||
| 42036_TS_DEWT_041997.nc | 26-Oct-2024 15:31 | 439921 | ||
| 42036_TS_DEWT_041998.nc | 26-Oct-2024 15:31 | 439839 | ||
| 42036_TS_DEWT_041999.nc | 26-Oct-2024 15:31 | 439759 | ||
| 42036_TS_DEWT_042000.nc | 26-Oct-2024 15:31 | 439955 | ||
| 42036_TS_DEWT_042001.nc | 26-Oct-2024 15:31 | 439814 | ||
| 42036_TS_DEWT_042002.nc | 26-Oct-2024 15:31 | 439791 | ||
| 42036_TS_DEWT_042003.nc | 26-Oct-2024 15:31 | 440131 | ||
| 42036_TS_DEWT_042004.nc | 26-Oct-2024 15:31 | 440127 | ||
| 42036_TS_DEWT_042005.nc | 26-Oct-2024 15:31 | 440144 | ||
| 42036_TS_DEWT_042006.nc | 26-Oct-2024 15:31 | 440138 | ||
| 42036_TS_DEWT_042009.nc | 26-Oct-2024 15:31 | 438417 | ||
| 42036_TS_DEWT_042010.nc | 26-Oct-2024 15:31 | 439495 | ||
| 42036_TS_DEWT_042011.nc | 26-Oct-2024 15:31 | 587883 | ||
| 42036_TS_DEWT_042012.nc | 26-Oct-2024 15:31 | 588036 | ||
| 42036_TS_DEWT_042013.nc | 26-Oct-2024 15:31 | 440074 | ||
| 42036_TS_DEWT_042014.nc | 26-Oct-2024 15:31 | 587901 | ||
| 42036_TS_DEWT_042015.nc | 26-Oct-2024 15:31 | 440154 | ||
| 42036_TS_DEWT_042016.nc | 26-Oct-2024 15:31 | 588183 | ||
| 42036_TS_DEWT_042017.nc | 26-Oct-2024 15:31 | 588184 | ||
| 42036_TS_DEWT_042020.nc | 26-Oct-2024 15:31 | 588177 | ||
| 42036_TS_DEWT_042021.nc | 26-Oct-2024 15:31 | 588214 | ||
| 42036_TS_DEWT_042022.nc | 26-Oct-2024 15:31 | 588210 | ||
| 42036_TS_DEWT_042023.nc | 26-Oct-2024 15:31 | 439742 | ||
| 42036_TS_DEWT_042025.nc | 01-May-2025 04:09 | 439567 | ||
| 42036_TS_DEWT_051994.nc | 26-Oct-2024 15:32 | 430655 | ||
| 42036_TS_DEWT_051995.nc | 26-Oct-2024 15:32 | 422562 | ||
| 42036_TS_DEWT_051997.nc | 26-Oct-2024 15:32 | 436264 | ||
| 42036_TS_DEWT_051998.nc | 26-Oct-2024 15:32 | 428893 | ||
| 42036_TS_DEWT_051999.nc | 26-Oct-2024 15:32 | 438903 | ||
| 42036_TS_DEWT_052000.nc | 26-Oct-2024 15:32 | 439868 | ||
| 42036_TS_DEWT_052001.nc | 26-Oct-2024 15:32 | 434267 | ||
| 42036_TS_DEWT_052002.nc | 26-Oct-2024 15:32 | 440147 | ||
| 42036_TS_DEWT_052003.nc | 26-Oct-2024 15:32 | 440093 | ||
| 42036_TS_DEWT_052004.nc | 26-Oct-2024 15:32 | 440066 | ||
| 42036_TS_DEWT_052005.nc | 26-Oct-2024 15:32 | 440151 | ||
| 42036_TS_DEWT_052006.nc | 26-Oct-2024 15:32 | 440350 | ||
| 42036_TS_DEWT_052008.nc | 26-Oct-2024 15:32 | 427486 | ||
| 42036_TS_DEWT_052009.nc | 26-Oct-2024 15:32 | 438755 | ||
| 42036_TS_DEWT_052010.nc | 26-Oct-2024 15:32 | 588017 | ||
| 42036_TS_DEWT_052011.nc | 26-Oct-2024 15:32 | 588121 | ||
| 42036_TS_DEWT_052012.nc | 26-Oct-2024 15:32 | 439723 | ||
| 42036_TS_DEWT_052013.nc | 26-Oct-2024 15:32 | 426037 | ||
| 42036_TS_DEWT_052014.nc | 26-Oct-2024 15:32 | 588049 | ||
| 42036_TS_DEWT_052015.nc | 26-Oct-2024 15:32 | 588082 | ||
| 42036_TS_DEWT_052016.nc | 26-Oct-2024 15:32 | 436373 | ||
| 42036_TS_DEWT_052017.nc | 26-Oct-2024 15:32 | 588183 | ||
| 42036_TS_DEWT_052020.nc | 26-Oct-2024 15:33 | 437058 | ||
| 42036_TS_DEWT_052021.nc | 26-Oct-2024 15:33 | 588189 | ||
| 42036_TS_DEWT_052022.nc | 26-Oct-2024 15:33 | 439636 | ||
| 42036_TS_DEWT_052023.nc | 26-Oct-2024 15:33 | 428625 | ||
| 42036_TS_DEWT_052025.nc | 01-Jun-2025 04:17 | 587992 | ||
| 42036_TS_DEWT_061994.nc | 26-Oct-2024 15:33 | 587851 | ||
| 42036_TS_DEWT_061995.nc | 26-Oct-2024 15:33 | 440291 | ||
| 42036_TS_DEWT_061996.nc | 26-Oct-2024 15:33 | 439687 | ||
| 42036_TS_DEWT_061997.nc | 26-Oct-2024 15:33 | 438061 | ||
| 42036_TS_DEWT_061998.nc | 26-Oct-2024 15:33 | 437566 | ||
| 42036_TS_DEWT_061999.nc | 26-Oct-2024 15:33 | 587954 | ||
| 42036_TS_DEWT_062000.nc | 26-Oct-2024 15:33 | 433900 | ||
| 42036_TS_DEWT_062001.nc | 26-Oct-2024 15:33 | 435194 | ||
| 42036_TS_DEWT_062002.nc | 26-Oct-2024 15:33 | 433245 | ||
| 42036_TS_DEWT_062003.nc | 26-Oct-2024 15:33 | 588156 | ||
| 42036_TS_DEWT_062004.nc | 26-Oct-2024 15:33 | 438782 | ||
| 42036_TS_DEWT_062005.nc | 26-Oct-2024 15:33 | 439425 | ||
| 42036_TS_DEWT_062006.nc | 26-Oct-2024 15:33 | 439916 | ||
| 42036_TS_DEWT_062008.nc | 26-Oct-2024 15:33 | 439943 | ||
| 42036_TS_DEWT_062009.nc | 26-Oct-2024 15:33 | 439874 | ||
| 42036_TS_DEWT_062010.nc | 26-Oct-2024 15:33 | 437579 | ||
| 42036_TS_DEWT_062011.nc | 26-Oct-2024 15:34 | 432135 | ||
| 42036_TS_DEWT_062012.nc | 26-Oct-2024 15:34 | 440105 | ||
| 42036_TS_DEWT_062013.nc | 26-Oct-2024 15:34 | 437601 | ||
| 42036_TS_DEWT_062014.nc | 26-Oct-2024 15:34 | 440149 | ||
| 42036_TS_DEWT_062015.nc | 26-Oct-2024 15:34 | 440065 | ||
| 42036_TS_DEWT_062016.nc | 26-Oct-2024 15:34 | 432030 | ||
| 42036_TS_DEWT_062017.nc | 26-Oct-2024 15:34 | 439949 | ||
| 42036_TS_DEWT_062019.nc | 26-Oct-2024 15:34 | 439489 | ||
| 42036_TS_DEWT_062020.nc | 26-Oct-2024 15:34 | 440252 | ||
| 42036_TS_DEWT_062021.nc | 26-Oct-2024 15:34 | 588122 | ||
| 42036_TS_DEWT_062022.nc | 26-Oct-2024 15:34 | 588083 | ||
| 42036_TS_DEWT_062023.nc | 26-Oct-2024 15:34 | 587849 | ||
| 42036_TS_DEWT_062025.nc | 01-Jul-2025 04:21 | 437718 | ||
| 42036_TS_DEWT_071994.nc | 26-Oct-2024 15:34 | 588139 | ||
| 42036_TS_DEWT_071995.nc | 26-Oct-2024 15:34 | 588154 | ||
| 42036_TS_DEWT_071996.nc | 26-Oct-2024 15:34 | 588166 | ||
| 42036_TS_DEWT_071997.nc | 26-Oct-2024 15:34 | 588094 | ||
| 42036_TS_DEWT_071998.nc | 26-Oct-2024 15:34 | 437680 | ||
| 42036_TS_DEWT_071999.nc | 26-Oct-2024 15:34 | 588251 | ||
| 42036_TS_DEWT_072000.nc | 26-Oct-2024 15:35 | 439229 | ||
| 42036_TS_DEWT_072001.nc | 26-Oct-2024 15:35 | 439950 | ||
| 42036_TS_DEWT_072002.nc | 26-Oct-2024 15:35 | 438176 | ||
| 42036_TS_DEWT_072003.nc | 26-Oct-2024 15:35 | 439934 | ||
| 42036_TS_DEWT_072004.nc | 26-Oct-2024 15:35 | 439510 | ||
| 42036_TS_DEWT_072005.nc | 26-Oct-2024 15:35 | 439674 | ||
| 42036_TS_DEWT_072006.nc | 26-Oct-2024 15:35 | 439998 | ||
| 42036_TS_DEWT_072008.nc | 26-Oct-2024 15:35 | 440104 | ||
| 42036_TS_DEWT_072009.nc | 26-Oct-2024 15:35 | 439127 | ||
| 42036_TS_DEWT_072010.nc | 26-Oct-2024 15:35 | 440132 | ||
| 42036_TS_DEWT_072011.nc | 26-Oct-2024 15:35 | 440168 | ||
| 42036_TS_DEWT_072012.nc | 26-Oct-2024 15:35 | 440025 | ||
| 42036_TS_DEWT_072013.nc | 26-Oct-2024 15:35 | 439881 | ||
| 42036_TS_DEWT_072014.nc | 26-Oct-2024 15:35 | 588053 | ||
| 42036_TS_DEWT_072015.nc | 26-Oct-2024 15:35 | 424985 | ||
| 42036_TS_DEWT_072016.nc | 26-Oct-2024 15:35 | 588105 | ||
| 42036_TS_DEWT_072017.nc | 26-Oct-2024 15:35 | 437353 | ||
| 42036_TS_DEWT_072019.nc | 26-Oct-2024 15:35 | 588074 | ||
| 42036_TS_DEWT_072020.nc | 26-Oct-2024 15:35 | 587701 | ||
| 42036_TS_DEWT_072021.nc | 26-Oct-2024 15:35 | 588177 | ||
| 42036_TS_DEWT_072022.nc | 26-Oct-2024 15:36 | 588000 | ||
| 42036_TS_DEWT_072023.nc | 26-Oct-2024 15:36 | 588157 | ||
| 42036_TS_DEWT_072025.nc | 01-Aug-2025 04:29 | 588207 | ||
| 42036_TS_DEWT_081994.nc | 26-Oct-2024 15:36 | 435584 | ||
| 42036_TS_DEWT_081995.nc | 26-Oct-2024 15:36 | 587051 | ||
| 42036_TS_DEWT_081996.nc | 26-Oct-2024 15:36 | 436057 | ||
| 42036_TS_DEWT_081997.nc | 26-Oct-2024 15:36 | 587188 | ||
| 42036_TS_DEWT_081998.nc | 26-Oct-2024 15:36 | 587176 | ||
| 42036_TS_DEWT_081999.nc | 26-Oct-2024 15:36 | 587179 | ||
| 42036_TS_DEWT_082000.nc | 26-Oct-2024 15:36 | 587173 | ||
| 42036_TS_DEWT_082001.nc | 26-Oct-2024 15:36 | 438598 | ||
| 42036_TS_DEWT_082002.nc | 26-Oct-2024 15:36 | 438832 | ||
| 42036_TS_DEWT_082003.nc | 26-Oct-2024 15:36 | 439483 | ||
| 42036_TS_DEWT_082004.nc | 26-Oct-2024 15:36 | 438794 | ||
| 42036_TS_DEWT_082005.nc | 26-Oct-2024 15:36 | 438762 | ||
| 42036_TS_DEWT_082006.nc | 26-Oct-2024 15:36 | 438818 | ||
| 42036_TS_DEWT_082008.nc | 26-Oct-2024 15:36 | 419049 | ||
| 42036_TS_DEWT_082009.nc | 26-Oct-2024 15:36 | 587207 | ||
| 42036_TS_DEWT_082010.nc | 26-Oct-2024 15:36 | 586887 | ||
| 42036_TS_DEWT_082011.nc | 26-Oct-2024 15:36 | 587228 | ||
| 42036_TS_DEWT_082012.nc | 26-Oct-2024 15:36 | 435055 | ||
| 42036_TS_DEWT_082013.nc | 26-Oct-2024 15:36 | 587172 | ||
| 42036_TS_DEWT_082014.nc | 26-Oct-2024 15:36 | 587288 | ||
| 42036_TS_DEWT_082015.nc | 26-Oct-2024 15:36 | 439946 | ||
| 42036_TS_DEWT_082016.nc | 26-Oct-2024 15:36 | 439982 | ||
| 42036_TS_DEWT_082017.nc | 26-Oct-2024 15:37 | 439880 | ||
| 42036_TS_DEWT_082019.nc | 26-Oct-2024 15:37 | 439974 | ||
| 42036_TS_DEWT_082020.nc | 26-Oct-2024 15:37 | 440146 | ||
| 42036_TS_DEWT_082021.nc | 26-Oct-2024 15:37 | 440129 | ||
| 42036_TS_DEWT_082022.nc | 26-Oct-2024 15:37 | 440138 | ||
| 42036_TS_DEWT_082023.nc | 26-Oct-2024 15:37 | 587040 | ||
| 42036_TS_DEWT_082025.nc | 01-Sep-2025 04:32 | 587201 | ||
| 42036_TS_DEWT_091994.nc | 26-Oct-2024 15:37 | 587213 | ||
| 42036_TS_DEWT_091995.nc | 26-Oct-2024 15:37 | 587252 | ||
| 42036_TS_DEWT_091996.nc | 26-Oct-2024 15:37 | 428090 | ||
| 42036_TS_DEWT_091997.nc | 26-Oct-2024 15:37 | 587203 | ||
| 42036_TS_DEWT_091998.nc | 26-Oct-2024 15:37 | 587265 | ||
| 42036_TS_DEWT_091999.nc | 26-Oct-2024 15:37 | 439753 | ||
| 42036_TS_DEWT_092000.nc | 26-Oct-2024 15:37 | 440090 | ||
| 42036_TS_DEWT_092001.nc | 26-Oct-2024 15:37 | 439922 | ||
| 42036_TS_DEWT_092002.nc | 26-Oct-2024 15:37 | 440179 | ||
| 42036_TS_DEWT_092003.nc | 26-Oct-2024 15:37 | 432521 | ||
| 42036_TS_DEWT_092004.nc | 26-Oct-2024 15:37 | 440073 | ||
| 42036_TS_DEWT_092005.nc | 26-Oct-2024 15:37 | 440166 | ||
| 42036_TS_DEWT_092006.nc | 26-Oct-2024 15:37 | 586817 | ||
| 42036_TS_DEWT_092007.nc | 26-Oct-2024 15:38 | 587097 | ||
| 42036_TS_DEWT_092008.nc | 26-Oct-2024 15:38 | 587114 | ||
| 42036_TS_DEWT_092009.nc | 26-Oct-2024 15:38 | 587225 | ||
| 42036_TS_DEWT_092010.nc | 26-Oct-2024 15:38 | 587208 | ||
| 42036_TS_DEWT_092011.nc | 26-Oct-2024 15:38 | 587244 | ||
| 42036_TS_DEWT_092012.nc | 26-Oct-2024 15:38 | 587200 | ||
| 42036_TS_DEWT_092013.nc | 26-Oct-2024 15:38 | 438615 | ||
| 42036_TS_DEWT_092014.nc | 26-Oct-2024 15:38 | 433923 | ||
| 42036_TS_DEWT_092015.nc | 26-Oct-2024 15:38 | 587059 | ||
| 42036_TS_DEWT_092016.nc | 26-Oct-2024 15:38 | 587205 | ||
| 42036_TS_DEWT_092017.nc | 26-Oct-2024 15:38 | 587161 | ||
| 42036_TS_DEWT_092019.nc | 26-Oct-2024 15:38 | 587269 | ||
| 42036_TS_DEWT_092020.nc | 26-Oct-2024 15:38 | 587193 | ||
| 42036_TS_DEWT_092021.nc | 26-Oct-2024 15:38 | 439358 | ||
| 42036_TS_DEWT_092022.nc | 26-Oct-2024 15:38 | 440100 | ||
| 42036_TS_DEWT_092023.nc | 26-Oct-2024 15:38 | 440150 | ||
| 42036_TS_DEWT_092025.nc | 01-Oct-2025 04:09 | 440058 | ||
| 42036_TS_DEWT_101994.nc | 26-Oct-2024 15:38 | 440168 | ||
| 42036_TS_DEWT_101995.nc | 26-Oct-2024 15:38 | 440157 | ||
| 42036_TS_DEWT_101996.nc | 26-Oct-2024 15:38 | 440016 | ||
| 42036_TS_DEWT_101997.nc | 26-Oct-2024 15:38 | 587217 | ||
| 42036_TS_DEWT_101998.nc | 26-Oct-2024 15:38 | 587164 | ||
| 42036_TS_DEWT_101999.nc | 26-Oct-2024 15:38 | 587091 | ||
| 42036_TS_DEWT_102000.nc | 26-Oct-2024 15:39 | 587228 | ||
| 42036_TS_DEWT_102001.nc | 26-Oct-2024 15:39 | 587246 | ||
| 42036_TS_DEWT_102002.nc | 26-Oct-2024 15:39 | 439964 | ||
| 42036_TS_DEWT_102003.nc | 26-Oct-2024 15:39 | 440203 | ||
| 42036_TS_DEWT_102004.nc | 26-Oct-2024 15:39 | 439133 | ||
| 42036_TS_DEWT_102005.nc | 26-Oct-2024 15:39 | 440094 | ||
| 42036_TS_DEWT_102006.nc | 26-Oct-2024 15:39 | 440205 | ||
| 42036_TS_DEWT_102007.nc | 26-Oct-2024 15:39 | 440167 | ||
| 42036_TS_DEWT_102008.nc | 26-Oct-2024 15:39 | 587136 | ||
| 42036_TS_DEWT_102009.nc | 26-Oct-2024 15:39 | 587235 | ||
| 42036_TS_DEWT_102010.nc | 26-Oct-2024 15:39 | 587114 | ||
| 42036_TS_DEWT_102011.nc | 26-Oct-2024 15:39 | 587189 | ||
| 42036_TS_DEWT_102012.nc | 26-Oct-2024 15:39 | 587253 | ||
| 42036_TS_DEWT_102013.nc | 26-Oct-2024 15:39 | 587268 | ||
| 42036_TS_DEWT_102014.nc | 26-Oct-2024 15:39 | 587307 | ||
| 42036_TS_DEWT_102015.nc | 26-Oct-2024 15:39 | 587204 | ||
| 42036_TS_DEWT_102016.nc | 26-Oct-2024 15:39 | 438878 | ||
| 42036_TS_DEWT_102017.nc | 26-Oct-2024 15:39 | 438846 | ||
| 42036_TS_DEWT_102019.nc | 26-Oct-2024 15:39 | 587278 | ||
| 42036_TS_DEWT_102020.nc | 26-Oct-2024 15:39 | 587341 | ||
| 42036_TS_DEWT_102021.nc | 26-Oct-2024 15:39 | 440259 | ||
| 42036_TS_DEWT_102022.nc | 26-Oct-2024 15:39 | 440189 | ||
| 42036_TS_DEWT_102023.nc | 26-Oct-2024 15:39 | 587329 | ||
| 42036_TS_DEWT_102024.nc | 12-Jan-2025 20:37 | 587292 | ||
| 42036_TS_DEWT_102025.nc | 01-Nov-2025 06:19 | 440142 | ||
| 42036_TS_DEWT_111994.nc | 26-Oct-2024 15:40 | 429901 | ||
| 42036_TS_DEWT_111995.nc | 26-Oct-2024 15:40 | 587301 | ||
| 42036_TS_DEWT_111996.nc | 26-Oct-2024 15:40 | 587253 | ||
| 42036_TS_DEWT_111997.nc | 26-Oct-2024 15:40 | 439434 | ||
| 42036_TS_DEWT_111998.nc | 26-Oct-2024 15:40 | 587174 | ||
| 42036_TS_DEWT_111999.nc | 26-Oct-2024 15:40 | 587227 | ||
| 42036_TS_DEWT_112000.nc | 26-Oct-2024 15:40 | 440222 | ||
| 42036_TS_DEWT_112001.nc | 26-Oct-2024 15:40 | 440223 | ||
| 42036_TS_DEWT_112002.nc | 26-Oct-2024 15:40 | 440221 | ||
| 42036_TS_DEWT_112003.nc | 26-Oct-2024 15:40 | 587109 | ||
| 42036_TS_DEWT_112004.nc | 26-Oct-2024 15:40 | 587286 | ||
| 42036_TS_DEWT_112005.nc | 26-Oct-2024 15:40 | 587327 | ||
| 42036_TS_DEWT_112006.nc | 26-Oct-2024 15:40 | 440197 | ||
| 42036_TS_DEWT_112007.nc | 26-Oct-2024 15:40 | 440259 | ||
| 42036_TS_DEWT_112008.nc | 26-Oct-2024 15:40 | 440242 | ||
| 42036_TS_DEWT_112009.nc | 26-Oct-2024 15:40 | 587322 | ||
| 42036_TS_DEWT_112010.nc | 26-Oct-2024 15:40 | 587331 | ||
| 42036_TS_DEWT_112011.nc | 26-Oct-2024 15:40 | 587321 | ||
| 42036_TS_DEWT_112012.nc | 26-Oct-2024 15:40 | 588191 | ||
| 42036_TS_DEWT_112013.nc | 26-Oct-2024 15:40 | 587991 | ||
| 42036_TS_DEWT_112014.nc | 26-Oct-2024 15:40 | 438798 | ||
| 42036_TS_DEWT_112015.nc | 26-Oct-2024 15:41 | 419670 | ||
| 42036_TS_DEWT_112016.nc | 26-Oct-2024 15:41 | 588166 | ||
| 42036_TS_DEWT_112017.nc | 26-Oct-2024 15:41 | 440163 | ||
| 42036_TS_DEWT_112019.nc | 26-Oct-2024 15:41 | 588216 | ||
| 42036_TS_DEWT_112020.nc | 26-Oct-2024 15:41 | 438252 | ||
| 42036_TS_DEWT_112021.nc | 26-Oct-2024 15:41 | 429630 | ||
| 42036_TS_DEWT_112022.nc | 26-Oct-2024 15:41 | 440061 | ||
| 42036_TS_DEWT_112023.nc | 26-Oct-2024 15:41 | 440167 | ||
| 42036_TS_DEWT_112024.nc | 17-Jan-2025 14:46 | 588217 | ||
| 42036_TS_DEWT_112025.nc | 01-Dec-2025 07:14 | 588188 | ||
| 42036_TS_DEWT_121994.nc | 26-Oct-2024 15:41 | 588191 | ||
| 42036_TS_DEWT_121995.nc | 26-Oct-2024 15:41 | 588155 | ||
| 42036_TS_DEWT_121996.nc | 26-Oct-2024 15:41 | 432063 | ||
| 42036_TS_DEWT_121997.nc | 26-Oct-2024 15:41 | 588166 | ||
| 42036_TS_DEWT_121998.nc | 26-Oct-2024 15:41 | 440141 | ||
| 42036_TS_DEWT_121999.nc | 26-Oct-2024 15:41 | 435556 | ||
| 42036_TS_DEWT_122000.nc | 26-Oct-2024 15:41 | 440297 | ||
| 42036_TS_DEWT_122001.nc | 26-Oct-2024 15:41 | 588165 | ||
| 42036_TS_DEWT_122002.nc | 26-Oct-2024 15:41 | 588192 | ||
| 42036_TS_DEWT_122003.nc | 26-Oct-2024 15:41 | 588410 | ||
| 42036_TS_DEWT_122004.nc | 26-Oct-2024 15:41 | 440152 | ||
| 42036_TS_DEWT_122005.nc | 26-Oct-2024 15:41 | 440156 | ||
| 42036_TS_DEWT_122006.nc | 26-Oct-2024 15:41 | 439990 | ||
| 42036_TS_DEWT_122007.nc | 26-Oct-2024 15:41 | 588209 | ||
| 42036_TS_DEWT_122008.nc | 26-Oct-2024 15:42 | 422113 | ||
| 42036_TS_DEWT_122009.nc | 26-Oct-2024 15:42 | 587943 | ||
| 42036_TS_DEWT_122010.nc | 26-Oct-2024 15:42 | 587892 | ||
| 42036_TS_DEWT_122011.nc | 26-Oct-2024 15:42 | 438540 | ||
| 42036_TS_DEWT_122012.nc | 26-Oct-2024 15:42 | 439775 | ||
| 42036_TS_DEWT_122013.nc | 26-Oct-2024 15:42 | 427564 | ||
| 42036_TS_DEWT_122014.nc | 26-Oct-2024 15:42 | 439234 | ||
| 42036_TS_DEWT_122015.nc | 26-Oct-2024 15:42 | 440350 | ||
| 42036_TS_DEWT_122016.nc | 26-Oct-2024 15:42 | 439847 | ||
| 42036_TS_DEWT_122019.nc | 26-Oct-2024 15:42 | 587968 | ||
| 42036_TS_DEWT_122020.nc | 26-Oct-2024 15:42 | 439571 | ||
| 42036_TS_DEWT_122021.nc | 26-Oct-2024 15:42 | 439497 | ||
| 42036_TS_DEWT_122022.nc | 26-Oct-2024 15:42 | 438142 | ||
| 42036_TS_DEWT_122023.nc | 26-Oct-2024 15:42 | 587954 | ||
| 42036_TS_DEWT_122024.nc | 22-Jan-2025 16:30 | 439845 | ||
| 42036_TS_DEWT_122025.nc | 01-Jan-2026 07:02 | 440356 | ||